Regional Weather Roundup
Issued by NWS

Home | Current Version | Previous Version | Text Only | Print | Product List | Glossary On
Versions: 1 2 3 4 5 6 7 8 9 10 11 12 13 14 15 16 17 18 19 20 21 22 23 24 25 26 27 28
000
ASUS45 KPSR 211110
RWRAZ

ARIZONA HOURLY REGIONAL WEATHER ROUNDUP
NATIONAL WEATHER SERVICE PHOENIX AZ
400 AM MST MON AUG 21 2017

NOTE: FAIR INDICATES FEW OR NO CLOUDS BELOW 12,000 FEET WITH NO
SIGNIFICANT WEATHER AND/OR OBSTRUCTIONS TO VISIBILITY.

AZZ001>003-036-211200-
NORTHWEST ARIZONA

CITY           SKY/WX    TMP DP  RH WIND       PRES   REMARKS
BULLHEAD CITY  CLOUDY    90  61  37 NE6       29.83S
KINGMAN        CLOUDY    77  52  41 SE10      30.05S
$$

AZZ004>008-015-016-018-211200-
NORTH CENTRAL ARIZONA

CITY           SKY/WX    TMP DP  RH WIND       PRES   REMARKS
GRAND CANYON   LGT RAIN  57  55  93 NE5       30.27F
WILLIAMS       CLOUDY    57  50  77 S5        30.27S
PRESCOTT       MOCLDY    62  54  74 S5        30.16F
FLAGSTAFF      CLOUDY    54  50  86 CALM      30.28F
PAYSON           N/A     63  50  63 CALM      30.17S
PAGE           MOCLDY    76  46  34 SW3       30.08R
$$

AZZ009>014-017-211200-
NORTHEAST ARIZONA

CITY           SKY/WX    TMP DP  RH WIND       PRES   REMARKS
WINSLOW        CLOUDY    67  51  56 CALM      30.14S
SAINT JOHNS    CLOUDY    61  54  77 NE6       30.19R
WINDOW ROCK    PTCLDY    53  50  89 CALM      30.28R
SHOW LOW       MOCLDY    59  54  82 S12       30.23F
$$

AZZ540-542>544-546-548-211200-
GREATER PHOENIX AREA

CITY           SKY/WX    TMP DP  RH WIND       PRES   REMARKS
PHOENIX        MOCLDY    88  57  34 E9        29.87R
BUCKEYE        MOCLDY    82  55  39 CALM      29.87R
LUKE AFB       MOCLDY    84  57  39 CALM      29.86S
DEER VALLEY    PTCLDY    82  53  36 SE3       29.89S
SCOTTSDALE     PTCLDY    83  55  38 CALM      29.91S
MESA-GATEWAY   MOCLDY    81  55  41 E7        29.91S
$$

AZZ539-553-211200-
SOUTHWEST MARICOPA COUNTY AND PINAL COUNTY

CITY           SKY/WX    TMP DP  RH WIND       PRES   REMARKS
CASA GRANDE    PTCLDY    79  60  52 CALM      29.91R
GILA BEND      FAIR      85  51  31 CALM      29.84S
$$

AZZ503-504-507>509-211200-
SOUTHEAST ARIZONA

CITY           SKY/WX    TMP DP  RH WIND       PRES   REMARKS
TUCSON         NOT AVBL
DAVIS-MONTHAN  PTCLDY    76  56  50 SE8       29.99R
NOGALES        CLEAR     65  58  78 SE3       30.10R
SIERRA VISTA   CLEAR     65  53  64 S5        30.14F
DOUGLAS        CLOUDY    64  60  87 E5        30.12S
SAFFORD        PTCLDY    65  58  78 NW3       30.05S
$$

AZZ532-211200-
SOUTHWEST ARIZONA

CITY           SKY/WX    TMP DP  RH WIND       PRES   REMARKS
YUMA           PTCLDY    86  53  32 SE10      29.79S
$$

CAZ041-043-047-048-061-525>527-560>570-211200-
SOUTHERN CALIFORNIA

CITY           SKY/WX    TMP DP  RH WIND       PRES   REMARKS
DOWNTOWN L.A.  CLOUDY    70  60  70 CALM      29.95S
L.A. AIRPORT   MOCLDY    68  61  78 CALM      29.96S
SAN DIEGO      CLOUDY    70  60  70 NW3       29.96S
BURBANK        CLOUDY    65  58  78 CALM      29.96F
ONTARIO        MOCLDY    65  59  81 S5        29.97S
RIVERSIDE      CLOUDY    65  61  87 CALM      29.97F
PALM SPRINGS   CLEAR     79  59  50 CALM      29.83S
EL CENTRO NAS  CLEAR     79  40  24 N3        29.80S
IMPERIAL       CLEAR     79  50  36 CALM      29.78R
BLYTHE         PTCLDY    90  49  24 S6        29.80F
NEEDLES        LGT RAIN  88  68  51 W5        29.84S
$$

NVZ020-UTZ003-211200-
SOUTHERN NEVADA-UTAH

CITY           SKY/WX    TMP DP  RH WIND       PRES   REMARKS
LAS VEGAS      CLOUDY    87  51  28 W14       29.92F
SALT LAKE CITY PTCLDY    69  44  40 SE8       30.06R
$$

NMZ009-TXZ055-211200-
NEW MEXICO-WEST TEXAS

CITY           SKY/WX    TMP DP  RH WIND       PRES   REMARKS
ALBUQUERQUE    CLOUDY    61  60  97 CALM      30.20S
EL PASO        MOCLDY    67  66  97 S3        30.11S
$$


........................KEY........................
SKY/WX - SKY CONDITION/WEATHER
TMP    - TEMPERATURE IN FAHRENHEIT
DP     - DEW POINT IN FAHRENHEIT
RH     - RELATIVE HUMIDITY IN PERCENT
WIND   - DIRECTION AND SPEED IN MILES PER HOUR (MPH)
VRB    - VARIABLE WIND DIRECTION
PRES   - MEAN SEA LEVEL PRESSURE IN INCHES OF MERCURY
         F - FALLING PRESSURE   R - RISING PRESSURE
         S - STEADY PRESSURE
VSB    - VISIBILITY IN MILES
HX     - HEAT INDEX IN FAHRENHEIT
WCI    - WIND CHILL INDEX IN FAHRENHEIT
TC     - TEMPERATURE IN CELSIUS WHICH IS ALSO KNOWN AS
         TEMPERATURE IN CENTIGRADE
AFB    - AIR FORCE BASE
         LUKE AFB IS LUKE AIR FORCE BASE
         DAVIS-MONTHAN IS DAVIS-MONTHAN AIR FORCE BASE
NAS    - NAVAL AIR STATION
         EL CENTRO NAS IS EL CENTRO NAVAL AIR STATION
N/A    - NOT AVAILABLE





USA.gov is the U.S. government's official web portal to all federal, state and local government web resources and services.